Weather History for Coldwater, MI

Change the Weather History Date:

Saturday, January 19, 2013

  Actual Average (KJYM) Record (KJYM)
Temperature  
Mean Temperature 40 °F -  
Max Temperature 46 °F 30 °F 53 °F (1949)
Min Temperature 35 °F 12 °F -10 °F (1984)
Degree Days  
Heating Degree Days 24    
Moisture  
Dew Point 28 °F    
Average Humidity 63    
Maximum Humidity 76    
Minimum Humidity 50    
Precipitation  
Precipitation 0.00 in - - ()
Sea Level Pressure  
Sea Level Pressure 29.84 in    
Wind  
Wind Speed 18 mph (SW)    
Max Wind Speed 23 mph    
Max Gust Speed 34 mph    
Visibility 10 miles    
Events      
Averages and records for this station are not official NWS values.
T = Trace of Precipitation, MM = Missing Value Source: NWS Daily Summary

Daily Weather History Graph

Daily Weather History Graph

Search for Another Location

Airport:

Trip Planner

Search our weather history database for the weather conditions in past years. The results will help you decide how hot, cold, wet, or windy it might be!

Date:

Astronomy

Jan. 19, 2013 Rise Set
Actual Time 8:03 AM EST 5:39 PM EST
Civil Twilight 7:32 AM EST 6:09 PM EST
Nautical Twilight 6:58 AM EST 6:43 PM EST
Astronomical Twilight 6:25 AM EST 7:17 PM EST
Moon 12:06 PM EST (1/19) 1:35 AM EST (1/19)
Length of Visible Light 10h 36m
Length of Day
9h 35m
First Quarter, 57% of the Moon is Illuminated
Jan 19
First Quarter
Jan 26
Full
Feb 3
Last Quarter
Feb 10
New
Feb 17
First Quarter

Hourly Weather History & Observations

Time (EST) Temp. Windchill Dew Point Humidity Pressure Visibility Wind Dir Wind Speed Gust Speed Precip Events Conditions
12:15 AM 36.5 °F 26.0 °F 22.6 °F 57% 29.96 in 10.0 mi SW 19.6 mph 25.3 mph N/A   Clear
12:34 AM 36.9 °F 26.8 °F 22.8 °F 57% 29.95 in 10.0 mi SW 18.4 mph 25.3 mph N/A   Clear
12:55 AM 37.6 °F 27.4 °F 23.0 °F 56% 29.95 in 10.0 mi SW 19.6 mph 29.9 mph N/A   Clear
1:15 AM 37.4 °F 26.6 °F 23.2 °F 57% 29.94 in 10.0 mi SW 21.9 mph 27.6 mph N/A   Clear
1:34 AM 37.4 °F 27.5 °F 23.5 °F 57% 29.94 in 10.0 mi SW 18.4 mph 34.5 mph N/A   Clear
1:55 AM 37.6 °F 27.1 °F 23.9 °F 58% 29.93 in 10.0 mi SW 20.7 mph 27.6 mph N/A   Clear
2:15 AM 37.9 °F 28.2 °F 23.9 °F 57% 29.94 in 10.0 mi SW 18.4 mph 32.2 mph N/A   Clear
2:34 AM 37.6 °F 28.1 °F 24.1 °F 58% 29.94 in 10.0 mi SW 17.3 mph 26.5 mph N/A   Clear
2:55 AM 37.8 °F 27.1 °F 24.4 °F 59% 29.94 in 10.0 mi SW 21.9 mph 28.8 mph N/A   Clear
3:14 AM 38.3 °F 28.4 °F 24.6 °F 58% 29.94 in 10.0 mi SW 19.6 mph 32.2 mph N/A   Clear
3:34 AM 37.8 °F 28.6 °F 24.8 °F 60% 29.94 in 10.0 mi SW 16.1 mph 27.6 mph N/A   Clear
3:55 AM 37.8 °F 27.7 °F 25.2 °F 60% 29.94 in 10.0 mi SW 19.6 mph 26.5 mph N/A   Clear
4:14 AM 37.2 °F 27.9 °F 25.3 °F 62% 29.94 in 10.0 mi SW 16.1 mph 24.2 mph N/A   Clear
4:34 AM 37.2 °F 28.7 °F 25.5 °F 63% 29.94 in 10.0 mi SW 13.8 mph 25.3 mph N/A   Clear
4:50 AM 36.9 °F 26.8 °F 25.7 °F 64% 29.93 in 10.0 mi SW 18.4 mph 23.0 mph N/A   Clear
5:16 AM 37.4 °F 27.8 °F 26.6 °F 65% - 10.0 mi SW 17.3 mph 25.3 mph N/A   Clear
5:39 AM 37.4 °F 27.5 °F 26.6 °F 65% 29.93 in 10.0 mi SW 18.4 mph 25.3 mph N/A   Clear
5:59 AM 35.6 °F 25.9 °F 26.6 °F 70% 29.94 in 10.0 mi SW 16.1 mph 21.9 mph N/A   Clear
6:16 AM 35.6 °F 26.2 °F 26.6 °F 70% 29.93 in 10.0 mi SW 15.0 mph 20.7 mph N/A   Clear
6:36 AM 35.6 °F 25.9 °F 26.6 °F 70% 29.93 in 10.0 mi SW 16.1 mph 20.7 mph N/A   Clear
6:58 AM 35.6 °F 27.1 °F 26.6 °F 70% 29.94 in 10.0 mi SW 12.7 mph 20.7 mph N/A   Clear
7:38 AM 35.6 °F 27.1 °F 26.6 °F 70% 29.94 in 10.0 mi SW 12.7 mph 19.6 mph N/A   Clear
7:58 AM 35.6 °F 26.6 °F 26.6 °F 70% 29.93 in 10.0 mi SW 13.8 mph 19.6 mph N/A   Clear
8:38 AM 35.6 °F 28.0 °F 26.6 °F 70% 29.94 in 10.0 mi SW 10.4 mph 17.3 mph N/A   Clear
9:01 AM 37.4 °F 29.3 °F - N/A% - 10.0 mi SW 12.7 mph 19.6 mph N/A   Clear
9:16 AM 37.4 °F 28.5 °F 26.6 °F 65% 29.94 in 10.0 mi SW 15.0 mph 21.9 mph N/A   Clear
9:36 AM 37.4 °F 28.5 °F - N/A% - 10.0 mi SW 15.0 mph 20.7 mph N/A   Clear
9:58 AM 39.2 °F 31.2 °F 26.6 °F 61% 29.94 in 10.0 mi SSW 13.8 mph 24.2 mph N/A   Clear
10:36 AM 41.0 °F 33.1 °F 26.6 °F 57% 29.93 in 10.0 mi SW 15.0 mph 21.9 mph N/A   Clear
10:56 AM - - - N/A% - - North - - N/A   Unknown
11:39 AM 44.6 °F 37.2 °F 28.4 °F 53% 29.90 in 10.0 mi SSW 17.3 mph 24.2 mph N/A   Clear
11:56 AM 42.8 °F 34.0 °F 28.4 °F 57% 29.89 in 10.0 mi SW 20.7 mph 28.8 mph N/A   Clear
12:17 PM 44.6 °F 37.2 °F 28.4 °F 53% 29.86 in 10.0 mi SW 17.3 mph 27.6 mph N/A   Clear
12:57 PM - - - N/A% - 10.0 mi SSW 16.1 mph 24.2 mph N/A   Clear
1:17 PM 42.8 °F 35.1 °F 28.4 °F 57% 29.82 in 10.0 mi SSW 16.1 mph 26.5 mph N/A   Clear
1:36 PM 46.4 °F 39.5 °F - N/A% - 10.0 mi SSW 17.3 mph 25.3 mph N/A   Clear
1:59 PM 46.4 °F 39.0 °F 28.4 °F 50% 29.80 in 10.0 mi SW 19.6 mph 28.8 mph N/A   Clear
2:37 PM 46.4 °F 38.3 °F - N/A% - 10.0 mi SW 23.0 mph 28.8 mph N/A   Clear
2:56 PM 46.4 °F 39.0 °F 30.2 °F 53% 29.77 in 10.0 mi SSW 19.6 mph 25.3 mph N/A   Clear
3:16 PM 44.6 °F 37.2 °F 30.2 °F 57% 29.76 in 10.0 mi SW 17.3 mph 24.2 mph N/A   Clear
4:01 PM 44.6 °F 37.2 °F 30.2 °F 57% 29.75 in 10.0 mi SW 17.3 mph 26.5 mph N/A   Scattered Clouds
4:17 PM - - - N/A% - - North - - N/A   Unknown
4:37 PM 44.6 °F 37.8 °F 32.0 °F 61% 29.77 in 10.0 mi WSW 15.0 mph 25.3 mph N/A   Overcast
5:17 PM 44.6 °F 36.6 °F 32.0 °F 61% 29.73 in 10.0 mi SSW 19.6 mph 26.5 mph N/A   Overcast
5:40 PM 42.8 °F 35.1 °F 32.0 °F 66% 29.73 in 10.0 mi SW 16.1 mph 24.2 mph N/A   Mostly Cloudy
5:57 PM 44.6 °F 36.9 °F 32.0 °F 61% 29.73 in 10.0 mi SSW 18.4 mph 27.6 mph N/A   Mostly Cloudy
6:19 PM - - - N/A% - - North - - N/A   Unknown
6:39 PM - - - N/A% - 10.0 mi SW 16.1 mph 26.5 mph N/A   Unknown
6:59 PM 42.8 °F 34.5 °F 32.0 °F 66% 29.73 in 10.0 mi SW 18.4 mph 24.2 mph N/A   Scattered Clouds
7:16 PM 42.8 °F 35.1 °F - N/A% - 10.0 mi SSW 16.1 mph 28.8 mph N/A   Scattered Clouds
7:36 PM 42.8 °F 34.3 °F 32.0 °F 66% 29.71 in 10.0 mi SW 19.6 mph 27.6 mph N/A   Clear
7:57 PM - - - N/A% - 10.0 mi SW 18.4 mph 29.9 mph N/A   Unknown
8:16 PM 42.8 °F 34.0 °F 32.0 °F 66% 29.70 in 10.0 mi SW 20.7 mph 32.2 mph N/A   Clear
8:36 PM 42.8 °F 33.5 °F - N/A% - 10.0 mi SW 23.0 mph 32.2 mph N/A   Clear
8:56 PM 41.0 °F 32.2 °F 32.0 °F 70% 29.68 in 10.0 mi SW 18.4 mph 32.2 mph N/A   Clear
9:19 PM 41.0 °F 32.2 °F 32.0 °F 70% 29.68 in 10.0 mi SW 18.4 mph 27.6 mph N/A   Clear
9:57 PM 41.0 °F 31.6 °F 33.8 °F 76% 29.67 in 10.0 mi SW 20.7 mph 28.8 mph N/A   Mostly Cloudy
10:17 PM 41.0 °F 32.8 °F 33.8 °F 76% 29.66 in 10.0 mi SW 16.1 mph 26.5 mph N/A   Overcast
10:36 PM 41.0 °F 33.1 °F 33.8 °F 76% 29.66 in 10.0 mi SW 15.0 mph 21.9 mph N/A   Overcast
10:58 PM 41.0 °F 32.8 °F 32.0 °F 70% 29.66 in 10.0 mi WSW 16.1 mph 26.5 mph N/A   Overcast
11:18 PM 42.8 °F 34.5 °F 32.0 °F 66% 29.66 in 10.0 mi WSW 18.4 mph 27.6 mph N/A   Overcast
11:36 PM - - - N/A% - - North - - N/A   Unknown
11:57 PM 41.0 °F 31.6 °F 32.0 °F 70% 29.66 in 10.0 mi WSW 20.7 mph 31.1 mph N/A   Overcast